Miscellaneous Local Product
Issued by NWS North Platte, NE

Home | Current Version | Previous Version | Graphics & Text | Print | Product List | Glossary On
Versions: 1 2 3 4 5 6 7 8 9 10 11 12 13 14 15 16 17 18 19 20 21 22 23 24 25 26 27 28 29 30 31 32 33 34 35 36 37 38 39 40 41 42 43 44 45 46 47 48 49 50
000
AXUS43 KLBF 011210
MISLBF


WESTERN AND NORTH CENTRAL NEBRASKA HOURLY WEATHER ROUNDUP
NATIONAL WEATHER SERVICE NORTH PLATTE NE
700 AM CDT SAT AUG 01 2015

***STATIONS NOT REPORTING VARIABLES SUCH AS SKY/WEATHER OR
PRESSURE ARE PROVIDED BY THE NEBRASKA DEPARTMENT OF
ROADS...RAWS...AND APRS NETWORKS...AND ARE NOT UNDER
NATIONAL WEATHER SERVICE QUALITY CONTROL***

...OBSERVATIONS IN AND NEAR THE EASTERN PANHANDLE OF NEBRASKA...

CITY           SKY/WX    TMP DP  RH WIND       PRES   REMARKS
PINE RIDGE     PTCLDY    61  54  77 NE8       30.05R
CHADRON        CLEAR     58  54  86 CALM      30.03S
ALLIANCE       CLEAR     58  54  86 SE3       30.08F
SIDNEY         CLEAR     65  57  75 SW15      30.14F
BIG SPRINGS      N/A     60  58  92 CALM        N/A
$$

...OBSERVATIONS IN NORTH CENTRAL NEBRASKA...

CITY           SKY/WX    TMP DP  RH WIND       PRES   REMARKS
VALENTINE      PTCLDY    64  54  69 E7        30.08F
THEDFORD       CLEAR     64  61  89 SE8       30.14R
AINSWORTH      MOCLDY    65  56  73 E5        30.10R
O`NEILL        CLOUDY    66  61  84 S14       30.04F
ORD            LGT RAIN  63  59  87 E9        30.16R
BROKEN BOW     PTCLDY    68  58  70 NE16G22   30.15R
SPRINGVIEW       N/A     63  59  88 CALM        N/A
CHAMBERS         N/A     64  61  89 S5G13       N/A
EWING            N/A     65  62  90 S9G22       N/A
$$

...OBSERVATIONS IN SOUTHWEST NEBRASKA AND FAR NORTHEAST COLORADO...

CITY           SKY/WX    TMP DP  RH WIND       PRES   REMARKS
WRAY           FAIR      61  59  92 SW7       30.14S
IMPERIAL       CLEAR     63  57  81 S3        30.11F
OGALLALA       CLEAR     61  59  93 S6        30.11S
NORTH PLATTE   CLEAR     70  57  63 SW7       30.08R
MCCOOK         CLEAR     67  54  63 SW9       30.08F
LEXINGTON      CLEAR     63  58  83 N7        30.07R
PAXTON           N/A     64  61  89 CALM        N/A
BRADY            N/A     71  58  64 CALM        N/A
CALLAWAY         N/A     69  63  81 NE12        N/A
$$

...NORTH PLATTE AREA...

CITY           SKY/WX    TMP DP  RH WIND       PRES   REMARKS
AIRPORT        CLEAR     70  57  63 SW7       30.08R
DOWNTOWN         N/A     69  59  69 CALM        N/A
SANDRIDGE        N/A     71  59  66 SW5         N/A
HILLCREST        N/A     69  60  73 W3          N/A
$$

...SOME WEATHER OBSERVATIONS FROM AROUND THE REGION...

CITY           SKY/WX    TMP DP  RH WIND       PRES   REMARKS
DENVER         PTCLDY    65  52  62 SW3       30.19S
LARAMIE        CLEAR     50  44  80 S8        30.31R
CHEYENNE       CLEAR     53  48  83 W6        30.23S
SCOTTSBLUFF    CLEAR     63  56  78 E7        30.09S
RAPID CITY     PTCLDY    62  56  80 CALM      30.00F
PIERRE         PTCLDY    66  60  81 S5        29.94F
WINNER         FAIR      81  49  32 W23G33    30.00R
SIOUX FALLS    PTCLDY    65  63  93 NW3       30.02R
OMAHA          MOCLDY    68  66  93 CALM      30.04R
GRAND ISLAND   CLOUDY    69  59  70 E10       30.10S
KANSAS CITY    PTCLDY    70  68  93 SW6       30.05R
WICHITA        PTCLDY    72  70  93 SE5       30.08S
HAYS           CLEAR     66  59  77 W3        30.08F
LIBERAL        MOCLDY    68  64  88 CALM      30.12S
GOODLAND       CLEAR     65  60  84 SW12      30.15F
$$



USA.gov is the U.S. government's official web portal to all federal, state and local government web resources and services.